www.pogodaiklimat.ru

Погода и климат >> Архив погоды >> Аргентина >> Чамикаль


ПОГОДА в Чамикале

  • Прогноз погоды в Чамикале
  • Монитор погоды в Чамикале

АРХИВ ПОГОДЫ в Чамикале

Время (UTC), дата Ветер
(напр.,м/с)
 
Видим.   Явления Облачность Т
(С)
Тd
(С)
f
(%)
Тe
(С)
Тes
(С)
Комфортность P
(гПа)
Po
(гПа)
Тmin
(С)
Tmax
(С)
R
(мм)
R24
(мм)
S
(см)
18 9.06 В 1 20 км 1/0
[Ci fib]
+18.8 +5.9 43 +20 +27 1010.5 957.0
21 9.06 В 1 20 км 1/0
[Ci fib]
+18.0 +6.3 46 +19 +19 1009.9 956.2
00 10.06 Ю 2 20 км 3/0
[Ci fib]
+13.4 +7.5 67 +13 +13 1012.5 958.2 +7.1 +20.5
03 10.06 штиль 0 20 км ясно +11.0 +8.7 86 +10 +10 1012.8 958.9
06 10.06 штиль 0 20 км ясно +9.4 +8.2 92 +9 +9 1011.8 958.2
09 10.06 штиль 0 20 км ясно +9.4 +8.6 95 +9 +9 1011.3 957.7
12 10.06 штиль 0 20 км ясно +9.6 +9.2 97 +9 +9 1013.8 959.6 +8.1 +13.4
15 10.06 ЮВ 2 20 км ясно +17.0 +11.1 68 +17 +24 1014.2 960.5
18 10.06 Ю 2 20 км ясно +20.8 +10.5 52 +23 +29 комфорт 1011.5 958.1
21 10.06 штиль 0 20 км ясно +19.9 +10.2 54 +21 +21 комфорт 1011.9 958.4
00 11.06 штиль 0 20 км ясно +14.2 +10.1 76 +14 +14 1014.5 960.4 +9.5 +21.6
03 11.06 штиль 0 20 км 1/1 1050 м
[Sc]
+12.2 +9.7 85 +12 +12 1015.7 962.0
06 11.06 Ю 1 20 км 9/9 1050 м
[Sc]
+11.2 +9.5 89 +11 +11 1014.9 961.6
09 11.06 Ю 1 20 км 3/3 1050 м
[Sc]
+12.0 +10.3 89 +12 +12 1013.8 960.5
12 11.06 штиль 0 20 км 5/0
[Ac As]
+11.8 +10.3 91 +11 +11 1013.6 959.7 +10.0 +15.0
15 11.06 штиль 0 20 км 8/0
[Ac As]
+18.0 +11.2 64 +18 +22 1011.8 958.4
21 11.06 штиль 0 20 км 4/0
[Ac As]
+20.0 +11.2 57 +21 +22 комфорт 1006.7 953.7
00 12.06 штиль 0 20 км ясно +13.5 +10.3 81 +13 +13 1008.2 954.5 +11.4 +21.0
03 12.06 штиль 0 20 км 9/9 1050 м
[Sc]
+16.6 +12.8 78 +17 +17 1008.1 955.3
06 12.06 штиль 0 20 км 9/9 1050 м
[Sc]
+15.7 +13.8 88 +15 +15 1007.8 955.0
09 12.06 ЮВ 2 20 км 5/5 1050 м
[Sc]
+14.6 +13.6 94 +14 +14 1007.1 954.2
12 12.06 Ю 1 10 км дымка 9/9 500 м
[Sc]
+14.9 +13.9 94 +15 +15 1009.8 956.2 +13.5 +16.8
15 12.06 ЮВ 1 15 км дымка 9/9 900 м
[Sc]
+17.5 +14.1 80 +19 +19 1009.9 956.9
18 12.06 В 1 15 км дымка 9/9 1050 м
[Sc]
+18.6 +13.5 72 +20 +21 1007.2 954.4
21 12.06 В 1 20 км 9/9 1050 м
[Sc]
+18.1 +14.4 79 +19 +19 1007.8 954.8
00 13.06 ЮЗ 3 20 км 9/9 1000 м
[Sc]
+17.5 +13.9 79 +18 +18 1010.1 956.9 +14.9 +19.2
03 13.06 штиль 0 20 км 9/9 1050 м
[Sc]
+16.0 +13.2 83 +16 +16 1010.7 957.6
06 13.06 штиль 0 20 км 10/10 1050 м
[Sc]
+15.4 +14.0 91 +15 +15 1009.5 956.5
09 13.06 штиль 0 20 км 10/10 900 м
[Sc]
+15.6 +14.2 91 +15 +15 1008.1 955.2
12 13.06 штиль 0 20 км 10/10 1200 м
[Sc]
+16.0 +13.2 83 +16 +16 1006.9 954.1 +15.3 +17.5
15 13.06 штиль 0 20 км 8/8 1200 м
[Sc]
+19.0 +15.4 80 +20 +22 1009.2 956.2
18 13.06 штиль 0 20 км 9/9 1200 м
[Sc]
+19.2 +14.2 73 +20 +21 1007.5 954.6
21 13.06 штиль 0 20 км 9/9 1200 м
[Sc]
+17.0 +13.6 80 +17 +17 1008.2 955.2
00 14.06 штиль 0 20 км 8/8 1200 м
[Sc]
+14.4 +10.7 78 +14 +14 1013.4 959.8
03 14.06 ЮЗ 2 20 км 4/4 1200 м
[Sc]
+10.5 +8.5 87 +9 +9 1015.4 961.7
06 14.06 ЮВ 1 20 км 1/1 1200 м
[Cu hum]
+8.9 +7.7 92 +8 +8 1015.9 962.1
09 14.06 штиль 0 20 км 8/8 1200 м
[Sc]
+7.6 +6.8 95 +7 +7 1016.5 962.2
12 14.06 штиль 0 20 км 4/0
[Ac und]
+9.1 +5.7 79 +8 +9 1018.1 963.7 +6.4 +14.4
15 14.06 штиль 0 20 км 9/0
[Ac und]
+13.7 +7.4 66 +13 +17 1018.5 964.1
18 14.06 штиль 0 20 км 10/0
[Ac und]
+15.1 +6.6 57 +15 +17 1015.1 960.9
21 14.06 штиль 0 20 км 10/0
[Ac und]
+13.9 +7.6 66 +14 +14 1014.9 960.5
00 15.06 штиль 0 20 км 10/5 1200 м
[Sc Ac und]
+12.8 +6.8 67 +12 +12 1016.5 962.1 +9.0 +15.5
03 15.06 штиль 0 15 км слаб. морось 10/5 900 м
[Frnb As op]
+10.8 +8.9 88 +10 +10 1017.6 963.3
06 15.06 штиль 0 15 км слаб. морось 10/10 900 м
[Frnb]
+9.6 +8.4 92 +9 +9 1017.2 963.0 0.0
09 15.06 штиль 0 20 км {морось} 10/10 900 м
[Frnb]
+9.6 +8.8 95 +9 +9 1016.2 961.8
12 15.06 штиль 0 20 км 10/10 900 м
[Sc]
+9.4 +8.6 95 +9 +9 1019.5 964.9 +8.9 +13.0 0.0
15 15.06 штиль 0 20 км 9/0
[Ac As]
+11.9 +5.7 66 +12 +15 1021.0 966.4
18 15.06 штиль 0 20 км 9/0
[Ac As]
+12.8 +5.8 62 +13 +16 1019.7 965.2
21 15.06 ЮВ 3 20 км 9/0
[Ac As]
+12.1 +2.6 52 +11 +11 1021.1 966.4
00 16.06 штиль 0 20 км 10/10 1050 м
[Sc]
+10.5 +1.5 54 +10 +10 1023.1 968.1 +8.9 +14.0
03 16.06 штиль 0 20 км 10/10 1200 м
[Sc]
+8.2 +2.2 66 +8 +8 1025.3 970.2
06 16.06 штиль 0 20 км ясно +4.2 +2.3 87 +3 +3 1025.1 969.7
09 16.06 штиль 0 20 км ясно -0.3 -0.6 98 -2 -2 1025.7 969.8
12 16.06 Ю 1 20 км 5/3 1350 м
[Sc Ac trans Cc]
+0.8 -0.8 89 -1 -1 1028.3 972.2 -1.9 +10.5

 

Местоположение метеостанции Чамикаль (Аргентина): широта -30.36 долгота -66.28 высота над уровнем моря 461 м.

В архиве по умолчанию представлена погода в Чамикале за последнюю неделю. Архивные данные за месяц целиком и за предыдущие месяцы, начиная с января 2011 года, Вы можете получить, выбрав интересующий диапазон дат из раскрывающегося списка и нажав кнопку "Ввод!".


*Определитесь, кто Вы:
робот инопланетянин человек

Внимание! Время в таблицах - всемирное. Для получения местного времени необходимо прибавить поправку, которая равна -3 ч.

Смотрите также архив погоды в соседних городах и на ближайших метеорологических станциях:

Погода в Ла-Риохе (Аргентина) (120 км)
Погода в Сан-Фернандо-дель-Валье-де-Катамарке (Аргентина) (202 км)
Погода в Вилла Долорес (Аргентина) (208 км)
Погода в Кордове (Аргентина) (224 км)
Погода в Сан-Хуане (Аргентина) (234 км)
Погода в Вилла де Мария дель Рио Секо (Аргентина) (255 км)
Погода в Пиларе (Аргентина) (271 км)
Погода в Сан-Луисе (Аргентина) (323 км)
Погода в Сантьяго-дель-Эстеро (Аргентина) (347 км)
Погода в Рио-Куарто (Аргентина) (358 км)

Пояснения к столбцам:

Ветер - указаны скорость ветра в м/с - средняя за 10 мин, порывы в срок и между сроками (в фигурных скобках) и направление, откуда дует ветер: С - северный, СВ - северо-восточный, В - восточный, ЮВ - юго-восточный, Ю - южный, ЮЗ - юго-западный, З - западный, СЗ - северо-западный.
Видимость - горизонтальная дальность видимости в метрах или километрах. При видимости от 1 до 10 км при отсутствии осадков обычно наблюдается дымка, при ухудшении видимости до 1 км и менее - туман. В сухую погоду видимость может ухудшаться дымом, пылью или мглою.
Явления - указаны атмосферные явления, наблюдавшиеся в срок или в последний час перед сроком; фигурными скобками обозначены явления, наблюдавшиеся между сроками (за 1-3 часа до срока); квадратными скобками обозначены град или гололедные отложения с указанием их диаметра в мм.
Облачность - указаны через наклонную черту общая и нижняя облачность в баллах и высота нижней границы облаков в метрах; квадратными скобками обозначены формы облаков: Ci - перистые, Cs - перисто-слоистые, Cc - перисто-кучевые, Ac - высококучевые, As - высокослоистые, Sc - слоисто-кучевые, Ns - слоисто-дождевые, Cu - кучевые, Cb - кучево-дождевые. Подробнее классификацию облаков см. в Атласе облаков (PDF).
T - Температура воздуха - температура, измеренная на высоте 2 м над землей.
Td - Температура точки росы - температура, при понижении до которой содержащийся в воздухе водяной пар достигнет насыщения.
f - Относительная влажность воздуха - влажноcть воздуха, измеренная на высоте 2 м над землей.
Te - Эффективная температура - температура, которую ощущает одетый по сезону человек в тени. Характеристика душности погоды. При расчете учитывается влияние влажности воздуха и скорости ветра на теплоощущения человека.
Tes - Эффективная температура на солнце - температура, которую ощущает человек, с поправкой на солнечный нагрев. Характеристика знойности погоды. Зависит от высоты солнца над горизонтом, облачности и скорости ветра. Ночью, в пасмурную погоду, а также при ветре 12 м/с и более поправка равна нулю.
P - Атмосферное давление - приведенное к уровню моря атмосферное давление.
Po - Атмосферное давление - измеренное на уровне метеостанции атмосферное давление.
Tmin - Минимальная температура - минимум температуры воздуха на высоте 2 м над землей.
Tmax - Максимальная температура - максимум температуры воздуха на высоте 2 м над землей.
R - Количество осадков - Количество выпавших осадков за период времени, мм. При наведении курсора мыши на число - период времени, за который выпало указанное количество осадков.
R24 - Количество осадков - Количество выпавших осадков за 24 часа, мм.
S - Снежный покров - Высота снежного покрова, см. При наведении курсора мыши на число - состояние снежного покрова и степень покрытия местности в баллах.